{"data":{"norad_id":57890,"intl_designator":"2023-145E","name":"YAOGAN-39 02C","alt_names":[],"object_type":"PAYLOAD","status":"ACTIVE","operator":null,"country":"PRC","launch_date":"2023-09-17","launch_site_code":"XICLF","launch_vehicle":null,"mission":null,"orbit_class":"UNKNOWN","rcs_meters":null,"size_class":null,"mass_kg":null,"dimensions":null,"purposes":[],"wikipedia_slug":null,"has_3d_model":false,"image_url":null,"decayed_at":null,"tle_current":{"epoch":"2026-05-25T01:35:27.806784Z","epoch_age_seconds":79911,"freshness":"FRESH","line1":"1 57890U 23145E   26145.06629406  .00005670  00000+0  27741-3 0  9996","line2":"2 57890  34.9951   8.5708 0006075 218.5759 141.4521 15.17547765149342","mean_motion":15.17547765,"eccentricity":0.0006075,"inclination_deg":34.9951,"raan_deg":8.5708,"arg_perigee_deg":218.5759,"mean_anomaly_deg":141.4521,"bstar":0.00027741,"rev_number":14934,"period_min":94.889929214189,"perigee_km":509.06806654938,"apogee_km":517.44110732751,"semimajor_km":6891.3915869384,"source":"CELESTRAK","updated_at":"2026-05-25T13:38:00.339418Z"}}}